Regional Weather Roundup
Issued by NWS Little Rock, AR

Home | Current Version | Previous Version | Graphics & Text | Print | Product List | Glossary On
Versions: 1 2 3 4 5 6 7 8 9 10 11 12 13 14 15 16 17 18 19 20 21 22 23 24 25 26 27 28 29 30 31 32 33 34 35 36 37 38 39 40 41 42 43 44 45 46 47 48 49 50
000
ASUS44 KLZK 170705
RWRLZK

WEATHER ROUNDUP FOR ARKANSAS
NATIONAL WEATHER SERVICE LITTLE ROCK AR
100 AM CST TUE JAN 17 2017

NOTE: "FAIR" INDICATES FEW OR NO CLOUDS BELOW 12,000 FEET WITH NO
SIGNIFICANT WEATHER AND/OR OBSTRUCTIONS TO VISIBILITY.

ARZ001-003-010-029-170800-
NORTHWEST ARKANSAS

CITY           SKY/WX    TMP DP  RH WIND       PRES   REMARKS
FAYETTEVILLE   CLEAR     38  35  89 W7        30.03R
FORT SMITH     CLEAR     40  36  86 W7        30.06R
HARRISON       CLEAR     41  37  86 CALM      30.01R
BENTONVILLE    CLOUDY   N/A N/A N/A W6        30.02S
ROGERS         CLOUDY    39  35  86 W9        30.02S
SILOAM SPGS    PTCLDY    36  32  87 W6        30.03S
HIGHFILL       CLOUDY    39  35  86 SW7       30.02S
$$

ARZ004-005-016-170800-
NORTH CENTRAL ARKANSAS

CITY           SKY/WX    TMP DP  RH WIND       PRES   REMARKS
BATESVILLE     PTCLDY    54  48  82 SW10      29.99S
FLIPPIN        CLEAR     45  36  70 W10       29.99R
MTN HOME       CLEAR     43  38  82 VRB5      30.00R
$$

ARZ040-041-170800-
WEST CENTRAL ARKANSAS

CITY           SKY/WX    TMP DP  RH WIND       PRES   REMARKS
MENA           PTCLDY    46  45  93 SW5       30.07R
MOUNT IDA      CLEAR     47  44  90 CALM      30.04R
$$

ARZ009-017-025-026-028-170800-
NORTHEAST ARKANSAS

CITY           SKY/WX    TMP DP  RH WIND       PRES   REMARKS
CORNING        FAIR      57  57 100 SW13      29.94F
JONESBORO      MOCLDY    62  57  83 W14       29.96S
NEWPORT        CLOUDY    59  53  80 W18       29.98S
WALNUT RIDGE   CLEAR     57  54  88 SW12      29.96S
BLYTHEVILLE    CLOUDY    62  58  86 SW14      29.97S
$$

ARZ022-023-033-042-044-170800-
CENTRAL ARKANSAS

CITY           SKY/WX    TMP DP  RH WIND       PRES   REMARKS
LITTLE ROCK    CLOUDY    54  51  90 NW10      30.02R
N LITTLE ROCK    N/A     52  47  85 NW5       30.03S
JACKSONVILLE   PTCLDY    54  51  89 W6        30.02R
SEARCY         CLOUDY    53  48  83 W7        30.03R
HOT SPRINGS    CLOUDY    52  48  86 W7        30.06R
RUSSELLVILLE   PTCLDY    48  41  76 W8        30.03F
CLINTON        FAIR      43  43 100 CALM      30.01S
$$

ARZ036-170800-
EAST ARKANSAS

CITY           SKY/WX    TMP DP  RH WIND       PRES   REMARKS
WEST MEMPHIS   LGT RAIN  64  32  30 SW6       29.98S
$$

ARZ050-053-066-070-073-170800-
SOUTHWEST ARKANSAS

CITY           SKY/WX    TMP DP  RH WIND       PRES   REMARKS
ARKADELPHIA    LGT RAIN  56  51  84 NW6       30.05S
CAMDEN         LGT RAIN  55  54  94 W3        30.07R
TEXARKANA      LGT RAIN  53  52  96 NW5       30.08R
EL DORADO      RAIN      57  56  96 W3        30.07R FOG
DE QUEEN       MOCLDY    47  47 100 CALM      30.08R
$$

ARZ056-057-069-170800-
SOUTHEAST ARKANSAS

CITY           SKY/WX    TMP DP  RH WIND       PRES   REMARKS
PINE BLUFF     RAIN      56  55  97 SW6       30.04S
STUTTGART      CLOUDY    57  52  82 SW13      30.03S
MONTICELLO     CLOUDY    59  56  89 W8        30.05R

$$





USA.gov is the U.S. government's official web portal to all federal, state and local government web resources and services.